Weather Roundup
Issued by NWS

Home | Current Version | Previous Version | Graphics & Text | Print | Product List | Glossary Off
Versions: 1 2 3 4 5 6 7 8 9 10 11 12 13 14 15 16 17 18 19 20 21 22 23 24 25 26 27 28 29 30 31 32 33 34 35 36 37 38 39 40 41 42 43 44 45 46 47 48 49 50

984
NZUS93 KARX 200359
HRRWXR

CURRENT HOURLY OBSERVATIONS ACROSS
MUCH OF THE UPPER MISSISSIPPI VALLEY
NATIONAL WEATHER SERVICE LA CROSSE WI
1100 PM CDT WED JUL 19 2017


...SOUTHEAST MINNESOTA...


CITY           SKY/WX    TMP DP  RH WIND       PRES   REMARKS
ROCHESTER      CLOUDY    68  67  96 NE10      29.96R
ROCHESTER/MAYO CLOUDY    69  68  97 E3        29.93R
WINONA         CLOUDY    72  66  83 N12G17    30.01R
AUSTIN         CLOUDY    72  66  83 S6        29.94R
ALBERT LEA     CLOUDY    72  68  88 S6        29.91R
DODGE CENTER   CLOUDY    68  66  94 E6        29.94R
PRESTON        CLOUDY    67  64  89 E5        29.96R
OWATONNA       CLOUDY    72  66  83 E6        29.93R
FARIBAULT      CLOUDY    72  66  83 NE8G17    29.94R
$$

...ELSEWHERE IN MINNESOTA...


CITY           SKY/WX    TMP DP  RH WIND       PRES   REMARKS
MINNEAPOLIS    TSTM      69  67  93 E7        29.93R FOG
INTNL FALLS    CLOUDY    68  60  75 S3        29.89S
DULUTH         PTCLDY    62  60  93 CALM      29.94S
RED WING       TSTM      70  68  94 SW7       29.92R VSB 1/2
REDWOOD FALLS  CLOUDY    71  67  87 N7        29.89S
MANKATO        CLOUDY    70  68  93 E5        29.90S
WORTHINGTON    CLOUDY    72  70  93 CALM      29.91R
FAIRMONT       CLOUDY    73  70  90 S3        29.88F
$$

...SOUTHWEST WISCONSIN...


CITY           SKY/WX    TMP DP  RH WIND       PRES   REMARKS
LA CROSSE      CLOUDY    75  67  76 SE7       29.96F
PRAIRIE DU CHI CLOUDY    67  65  96 E5        29.97S
BOSCOBEL       CLOUDY    72  67  84 CALM      30.00R
LONE ROCK      NOT AVBL
PLATTEVILLE    CLOUDY    72  69  90 E12       30.03F
FORT MC COY    CLOUDY    66  66  98 W6        30.01R
MAUSTON-NEW LI DRIZZLE   71  67  87 S5        30.00R
VIROQUA        NOT AVBL
WIS DELLS      CLOUDY    72  68  86 W15G21    30.02R
$$

...ELSEWHERE IN WISCONSIN...


CITY           SKY/WX    TMP DP  RH WIND       PRES   REMARKS
MILWAUKEE      TSTM      68  63  84 SW10      30.09R
MADISON        CLOUDY    71  68  90 S5        29.95R
GREEN BAY      CLOUDY    70  52  52 E3        29.94R
EAU CLAIRE     CLOUDY    66  64  94 CALM      29.93F
BLACK RVR FLS  FAIR      68  68 100 SW3       29.97F
MEDFORD        CLOUDY    62  60  91 CALM      29.97R
WAUSAU         CLOUDY    69  59  70 SE3       29.95R
WIS RAPIDS     CLOUDY    70  67  90 SW7       29.99R
MARSHFIELD     CLOUDY    67  63  87 W8        29.97R
RICE LAKE      CLOUDY    65  64  94 CALM      29.96F
$$

...NORTHEAST IOWA...


CITY           SKY/WX    TMP DP  RH WIND       PRES   REMARKS
WATERLOO       CLOUDY    76  67  73 S13       29.93F
DUBUQUE        CLOUDY    71  66  84 SE12      30.03S
DECORAH        CLOUDY    68  66  94 SE8       29.94S
MASON CITY     CLOUDY    73  70  90 S12       29.93F
CHARLES CITY   CLOUDY    72  72 100 S10       29.93F
OELWEIN        CLOUDY    73  72  94 S13       29.96S
$$

...ELSEWHERE IN IOWA...


CITY           SKY/WX    TMP DP  RH WIND       PRES   REMARKS
DES MOINES     CLOUDY    82  74  76 S10       29.95F
IOWA CITY      PTCLDY    76  70  82 SE9       30.01F
FORT DODGE     CLOUDY    82  75  78 S14G21    29.89F
MARSHALLTOWN   CLOUDY    82  72  71 S10       29.94F
CEDAR RAPIDS   CLOUDY    73  71  93 SE7       29.99F
$$

...NORTHERN ILLINOIS...


CITY           SKY/WX    TMP DP  RH WIND       PRES   REMARKS
CHICAGO-OHARE  TSTM      70  67  90 CALM      30.08F FOG
CHICAGO-MIDWAY TSTM      72  67  84 N8        30.07F
MOLINE         PTCLDY    76  67  73 SE8       30.04F
ROCKFORD       LGT RAIN  72  66  81 NW12G24   30.11S
PEORIA         CLOUDY    80  77  90 E5        30.08R
$$

NOTE: "FAIR" INDICATES FEW OR NO CLOUDS BELOW 12,000 FEET WITH NO
SIGNIFICANT WEATHER AND/OR OBSTRUCTIONS TO VISIBILITY. WIND
SPEEDS ARE IN MILES-PER-HOUR.




USA.gov is the U.S. government's official web portal to all federal, state and local government web resources and services.